Regional Weather Roundup
Issued by NWS Upton, NY

Current Version | Previous Version | Text Only | Print | Product List | Glossary On
Versions: 1 2 3 4 5 6 7 8 9 10 11 12 13 14 15 16 17 18 19 20 21 22 23 24 25 26 27
000
ASUS41 KOKX 161808
RWROKX

REGIONAL WEATHER ROUNDUP
NATIONAL WEATHER SERVICE NEW YORK NY
100 PM EST MON JAN 16 2017

NOTE: "FAIR" INDICATES FEW OR NO CLOUDS BELOW 12,000 FEET WITH NO
SIGNIFICANT WEATHER AND/OR OBSTRUCTIONS TO VISIBILITY.

NYZ071-072-176-178-NJZ106-104-161900-
NEW YORK CITY METRO AREA

CITY           SKY/WX    TMP DP  RH WIND       PRES   REMARKS
Central Park   SUNNY     40  21  46 W7        30.41F
Wall St Helipt CLEAR     42  25  50 W5        30.41F
Bronx Bot Gard NOT AVBL
LaGuardia APRT PTSUNNY   42  21  43 SW8       30.39F
Kennedy INTL   PTSUNNY   40  22  48 SW10      30.42F WCI  33
Breezy Point     N/A     37 N/A N/A W6          N/A  WCI  33
Newark/Liberty PTSUNNY   42  21  43 W8        30.40F
Teterboro      SUNNY     41  22  46 VRB5      30.39F
$$

NYZ177-179-078>081-161900-
LONG ISLAND NEW YORK

CITY           SKY/WX    TMP DP  RH WIND       PRES   REMARKS
Jones Beach      N/A     36 N/A N/A SW7         N/A  WCI  30
Matinecock PT  NOT AVBL
Farmingdale    SUNNY     40  20  44 W6        30.40F
MacArthur/ISP  PTSUNNY   41  20  43 SW8       30.39F
Shirley        SUNNY     40  21  46 SW7       30.40F
Westhampton    SUNNY     40  20  44 VRB5      30.41F
Southampton    NOT AVBL
Bridgehampton  NOT AVBL
East Hampton     N/A     39  21  48 W3        30.39F
Montauk          N/A     39  22  50 W12       30.40F WCI  32
$$

NYZ052-065-067-161900-
HUDSON VALLEY

CITY           SKY/WX    TMP DP  RH WIND       PRES   REMARKS
White Plains   SUNNY     38  19  46 W7        30.36F WCI  33
Newburgh       SUNNY     37  23  56 W9        30.37F WCI  31
Montgomery     SUNNY     40  23  50 SW12      30.34F WCI  33
Poughkeepsie   SUNNY     37  20  50 SW8       30.36F WCI  31
Albany         MOSUNNY   35  18  49 S8        30.34F WCI  29
$$

NJZ001-105-106-008-010-013-015-019>022-104-161900-
NEW JERSEY

CITY           SKY/WX    TMP DP  RH WIND       PRES   REMARKS
Newark/Liberty PTSUNNY   42  21  43 W8        30.40F
Teterboro      SUNNY     41  22  46 VRB5      30.39F
Caldwell       SUNNY     39  20  46 VRB6      30.40F WCI  35
Somerville     SUNNY     39  21  48 W5        30.39F
Linden           N/A     40  20  44 W5        30.41F
Sussex         SUNNY     38  21  50 SW6       30.36F WCI  33
Andover          N/A     37  21  52 VRB5      30.37F WCI  33
Trenton        SUNNY     40  23  50 CALM      30.40F
Millville      MOSUNNY   42  24  49 W7        30.43F
Atlantic City  SUNNY     44  18  35 NW5       30.42F
Wrightstown    SUNNY     42  21  43 W3        30.38F
Toms River     SUNNY     42  19  39 NW6       30.41F
Belmar         SUNNY     41  21  44 CALM      30.41F
$$

PAZ047>061-062-071-161900-
EASTERN PENNSYLVANIA

CITY           SKY/WX    TMP DP  RH WIND       PRES   REMARKS
Philadelphia   PTSUNNY   40  21  46 VRB7      30.43F
Allentown      SUNNY     39  22  50 CALM      30.39F
Scranton       SUNNY     34  22  61 SW8       30.35F WCI  27
$$

CTZ002-004>006-009-010-012-RIZ004-006-007-MAZ004-011-015-161900-
SOUTHERN NEW ENGLAND
 IN CT

CITY           SKY/WX    TMP DP  RH WIND       PRES   REMARKS
Bradley INTL   PTSUNNY   38  18  44 VRB6      30.36F WCI  33
Hartford       SUNNY     39  20  46 S8        30.37F WCI  33
Danbury        SUNNY     38  19  46 VRB5      30.37F WCI  34
Wtrbury/Oxford MOSUNNY   37  18  44 NW9       30.36F WCI  31
Bridgeport     SUNNY     38  21  50 SW12      30.39F WCI  30
Meriden        SUNNY     40  18  41 VRB5      30.37F
New Haven      MOSUNNY   36  21  54 S9        30.38F WCI  29
Chester          N/A     39  16  38 VRB5      30.36F
Groton         SUNNY     38  21  50 SW14      30.38F WCI  30
Wilimantic     SUNNY     40  16  37 W9        30.36F WCI  34

 IN RI

CITY           SKY/WX    TMP DP  RH WIND       PRES   REMARKS
Providence     PTSUNNY   40  14  34 W10       30.36F WCI  33
Block Island   NOT AVBL
Westerly       SUNNY     38  22  52 SW10G21   30.39F WCI  31
 IN MA

CITY           SKY/WX    TMP DP  RH WIND       PRES   REMARKS
Boston         MOSUNNY   40  16  37 SW16      30.31F WCI  31
Worcester      SUNNY     35  13  40 W18G25    30.28F WCI  24
Westfield      SUNNY     39  18  42 S6        30.33F WCI  35
Provincetown   SUNNY     41  26  55 SW22      30.33F
Nantucket      SUNNY     40  26  57 S15       30.36F WCI  32
$$

ANZ330-335-338-340-345-350-353-355-161900-
COASTAL MARINE OBSERVATIONS


STATION/POSITION TIME  SKY/WX   TEMP    WIND        PRES    VSBY  WAVE
                                AIR SEA DIR/SP/G                  HT/PER
                 (UTC)          (F)     (DEG/KT/KT) (MB)    (MI)  (FT/S)
NY HARB ENTRANCE 1650            36 44  310/  2/  4 1031.0          1/11
20 S FIRE ISLAND 1750            37 45  300/  6/  8 1029.9          2/11
GREAT SOUTH BAY  NOT AVBL
23 SSW MONTAUK P 1650            39 48  250/ 12/ 16 1030.5          2/10
15 E BARNEGAT LI 1730               46                N/A           2/10
HUDSON CANYON    1650            45 53              1030.3          2/11
KINGS POINT      1742            39 38              1029.2
EXECUTION ROCKS  1745            38     210/  8/ 10   N/A
CENTRAL LI SOUND 1730            35     270/ 10/ 12   N/A           0
EASTERN LI SOUND NOT AVBL
ROBBINS REEF     1742            37     160/  3/  4 1029.8
$$


>>>>>>>>>>>>>>>>>>>>>>>>>>>> KEY <<<<<<<<<<<<<<<<<<<<<<<<<<<
>                                                          <
>     SKY/WX - Sky Condition/Present Weather               <
>     TMP    - Temperature in Fahrenheit                   <
>     DP     - Dew Point in Fahrenheit                     <
>     RH     - Relative Humidity in Percent                <
>     WIND   - Direction (from) and Speed in MPH           <
>     PRES   - Mean Sea Level Pressure (inches of Hg)      <
>     WCI    - Wind Chill Index                            <
>     VSB    - VISIBILITY IN MILES                         <
>     HX     - HEAT INDEX                                  <
>     TC     - TEMPERATURE IN CELSIUS                      <
>     VRB    - VARIABLE WIND DIRECTION                     <
>                                                          <
>>>>>>>>>>>>>>>>>>>>>>>>>>>> KEY <<<<<<<<<<<<<<<<<<<<<<<<<<<




USA.gov is the U.S. government's official web portal to all federal, state and local government web resources and services.